Naples Weather Center

Moon Phase Calendar



Online Cameras

 


      

Current Conditions in Naples
9/26/2022 2:38:26 PM

82°F
Feels Like 87
Clouds
Humidity
74%
Pressure
29.85"
Wind
6.9 mph (ESE)
Dew Point
73°F
UV Index
5/10 (Moderate)
Visibility
6 mi

Hourly Forecast

Date & Time Mon, Sep 26
2:00 PM
Mon, Sep 26
3:00 PM
Mon, Sep 26
4:00 PM
Mon, Sep 26
5:00 PM
Mon, Sep 26
6:00 PM
Mon, Sep 26
7:00 PM
Mon, Sep 26
8:00 PM
Mon, Sep 26
9:00 PM
Mon, Sep 26
10:00 PM
Mon, Sep 26
11:00 PM
Tue, Sep 27
12:00 AM
Tue, Sep 27
1:00 AM
Tue, Sep 27
2:00 AM
Tue, Sep 27
3:00 AM
Tue, Sep 27
4:00 AM
Tue, Sep 27
5:00 AM
Tue, Sep 27
6:00 AM
Tue, Sep 27
7:00 AM
Tue, Sep 27
8:00 AM
Tue, Sep 27
9:00 AM
Tue, Sep 27
10:00 AM
Tue, Sep 27
11:00 AM
Tue, Sep 27
12:00 PM
Tue, Sep 27
1:00 PM
Tue, Sep 27
2:00 PM
Tue, Sep 27
3:00 PM
Tue, Sep 27
4:00 PM
Tue, Sep 27
5:00 PM
Tue, Sep 27
6:00 PM
Tue, Sep 27
7:00 PM
Tue, Sep 27
8:00 PM
Tue, Sep 27
9:00 PM
Tue, Sep 27
10:00 PM
Tue, Sep 27
11:00 PM
Wed, Sep 28
12:00 AM
Wed, Sep 28
1:00 AM
Wed, Sep 28
2:00 AM
Wed, Sep 28
3:00 AM
Wed, Sep 28
4:00 AM
Wed, Sep 28
5:00 AM
Wed, Sep 28
6:00 AM
Wed, Sep 28
7:00 AM
Wed, Sep 28
8:00 AM
Wed, Sep 28
9:00 AM
Wed, Sep 28
10:00 AM
Wed, Sep 28
11:00 AM
Wed, Sep 28
12:00 PM
Wed, Sep 28
1:00 PM
Condition
Rain

Clouds

Clouds

Rain

Rain

Clouds

Rain

Rain

Rain

Rain

Rain

Rain

Rain

Rain

Rain

Clouds

Clouds

Clouds

Rain

Rain

Rain

Rain

Rain

Rain

Rain

Rain

Rain

Rain

Rain

Rain

Rain

Rain

Rain

Rain

Rain

Rain

Rain

Rain

Rain

Rain

Rain

Rain

Rain

Rain

Rain

Rain

Rain

Rain
Temperature 83°F82°F81°F80°F79°F79°F77°F76°F76°F75°F75°F74°F74°F74°F74°F75°F75°F75°F75°F75°F75°F76°F76°F76°F77°F78°F79°F80°F80°F80°F79°F80°F80°F81°F81°F82°F82°F82°F82°F82°F82°F82°F82°F83°F82°F84°F83°F84°F
Feels Like 88°F87°F86°F85°F79°F79°F78°F77°F77°F77°F76°F76°F76°F76°F76°F76°F77°F77°F77°F77°F77°F77°F78°F78°F78°F79°F79°F80°F80°F80°F79°F80°F85°F87°F88°F89°F89°F89°F90°F89°F90°F90°F90°F91°F90°F93°F92°F93°F
Cloudiness 36%20%36%52%68%84%100%100%100%100%100%100%100%100%100%100%100%100%100%100%100%100%100%100%100%100%100%100%100%100%100%100%100%100%100%100%100%100%100%100%100%100%100%100%100%100%100%100%
Visibility 6 mi6 mi6 mi6 mi6 mi6 mi4 mi5 mi6 mi5 mi2 mi2 mi5 mi6 mi6 mi6 mi6 mi6 mi6 mi3 mi3 mi3 mi6 mi6 mi6 mi6 mi4 mi6 mi6 mi5 mi4 mi3 mi6 mi4 mi4 mi4 mi4 mi5 mi4 mi4 mi4 mi6 mi5 mi5 mi6 mi5 mi6 mi6 mi
Precipitation 78%71%78%100%100%80%100%100%100%100%100%100%100%86%85%82%85%90%97%100%100%100%100%100%100%96%100%100%100%100%100%100%100%100%100%100%100%100%100%100%100%100%100%100%100%100%100%100%
Humidity 71%74%76%78%80%79%84%89%89%91%93%94%94%93%92%91%91%90%91%92%94%93%92%93%90%87%83%82%85%85%87%85%86%84%84%83%83%83%84%84%84%84%83%83%83%80%81%81%
Dew Point 72°F73°F73°F73°F72°F72°F72°F72°F72°F72°F72°F72°F72°F72°F72°F72°F72°F72°F72°F73°F73°F73°F73°F74°F74°F73°F74°F74°F75°F75°F75°F75°F75°F76°F76°F76°F76°F76°F76°F77°F77°F77°F77°F77°F77°F77°F77°F77°F
Pressure 29.85"29.85"29.85"29.85"29.83"29.83"29.88"29.91"29.91"29.91"29.88"29.88"29.85"29.85"29.83"29.83"29.83"29.83"29.83"29.83"29.83"29.85"29.85"29.83"29.8"29.77"29.74"29.71"29.71"29.71"29.71"29.71"29.71"29.71"29.71"29.68"29.65"29.62"29.62"29.62"29.62"29.59"29.59"29.62"29.62"29.65"29.62"29.65"
Wind Speed 10.7 mph13.4 mph12.2 mph12.1 mph10.8 mph10.8 mph9.1 mph8.8 mph10.9 mph11.6 mph11.9 mph14.9 mph17.3 mph16.9 mph17.1 mph18 mph18.4 mph18.5 mph18.5 mph18.3 mph18.7 mph19.6 mph19.2 mph19.6 mph20.6 mph21.6 mph21.2 mph24.2 mph25.3 mph24.5 mph25.2 mph25.7 mph27.4 mph30.1 mph30.3 mph31.8 mph32.3 mph33.4 mph33.6 mph34.3 mph35.8 mph36.4 mph36.4 mph36.5 mph36.8 mph36.3 mph37.4 mph35.9 mph
Wind
Direction
164°
SSE
180°
S
169°
S
146°
SE
119°
ESE
108°
ESE
130°
SE
111°
ESE
84°
E
78°
ENE
74°
ENE
75°
ENE
70°
ENE
65°
ENE
69°
ENE
69°
ENE
69°
ENE
70°
ENE
71°
ENE
73°
ENE
71°
ENE
73°
ENE
69°
ENE
67°
ENE
64°
ENE
64°
ENE
85°
E
96°
E
96°
E
98°
E
101°
E
106°
ESE
107°
ESE
122°
ESE
126°
SE
128°
SE
133°
SE
138°
SE
146°
SE
149°
SSE
155°
SSE
154°
SSE
160°
SSE
166°
SSE
165°
SSE
172°
S
171°
S
179°
S

Daily Forecast

Date High Low Precip. Humidity
Today
Sep 26

Rain
84 °F
75 °F
100%
68%
Tuesday
Sep 27

Rain
81 °F
74 °F
100%
93%
Wednesday
Sep 28

Rain
84 °F
81 °F
100%
80%
Thursday
Sep 29

Rain
84 °F
81 °F
100%
72%
Friday
Sep 30

Rain
85 °F
83 °F
99%
70%
Saturday
Oct 1

Rain
85 °F
82 °F
55%
64%
Sunday
Oct 2

Clouds
85 °F
77 °F
7%
52%
Monday
Oct 3

Clear
84 °F
78 °F
0%
59%
Tuesday
Oct 4

Clouds
83 °F
74 °F
0%
45%
Wednesday
Oct 5

Rain
82 °F
74 °F
24%
49%
Thursday
Oct 6

Rain
84 °F
73 °F
25%
46%
Friday
Oct 7

Rain
85 °F
74 °F
21%
55%
Saturday
Oct 8

Clouds
86 °F
76 °F
28%
52%
Sunday
Oct 9

Clouds
87 °F
76 °F
16%
54%
Monday
Oct 10

Rain
78 °F
74 °F
100%
84%
Tuesday
Oct 11

Rain
85 °F
74 °F
98%
60%

Temperature 8-14 Day Outlook



Precipitation 8-14 Day Outlook




Quick Links
Naples News
Naples Photos
Naples Videos




About Us
Contact Us
Site Map
Search Site
Advertise With Us
   
Naples.USGulf.info
THE NAPLES WEBSITE

Copyright 2022, Coastal Town
Privacy    |    Legal